1498291200.86,4517,18.13,74074.0,13.67,-20.79,-22.77,0,*75
1498291202.06,4518,18.19,74072.0,13.67,-20.25,-22.03,0,*70
1498291203.28,4519,18.19,74074.0,13.71,-21.67,-23.59,0,*7F
1498291204.5,4520,18.19,74082.3,13.71,-21.93,-23.99,0,*72
1498291205.75,4521,18.13,74076.5,13.71,-23.69,-25.81,0,*7B
1498291206.96,4522,18.13,74082.0,13.71,-21.63,-23.53,0,*79
1498291208.21,4523,18.13,74086.8,13.71,-23.03,-25.03,0,*7F
1498291209.43,4524,18.19,74086.0,13.71,-27.71,-30.39,0,*74
1498291210.64,4525,18.13,74076.5,13.67,-28.69,-31.01,0,*7E
1498291211.89,4526,18.13,74080.5,13.59,-29.35,-31.85,0,*74
1498291213.12,4527,18.19,74084.8,13.53,-30.73,-33.37,0,*7E
1498291214.36,4528,18.19,74082.8,13.47,-31.01,-33.73,0,*70
1498291215.62,4529,18.13,74072.3,13.41,-31.61,-34.01,0,*73
1498291216.84,4530,18.13,74024.5,13.33,-26.93,-28.97,0,*77
1498291218.04,4531,18.19,74038.3,13.33,-23.75,-25.87,0,*77
1498291219.26,4532,18.19,74042.5,13.35,-23.09,-25.19,0,*7E
1498291220.51,4533,18.19,74046.8,13.35,-24.11,-26.23,0,*7B
1498291221.73,4534,18.19,74058.0,13.37,-22.17,-24.05,0,*78
1498291223.01,4535,18.13,74080.0,13.43,-21.23,-23.19,0,*74
1498291224.22,4536,18.13,74090.0,13.43,-22.83,-24.97,0,*7F
1498291225.47,4537,18.13,74076.8,13.43,-26.07,-28.59,0,*78
1498291226.69,4538,18.13,74074.3,13.37,-26.49,-28.75,0,*70
1498291227.89,4539,18.19,74074.0,13.37,-27.55,-29.95,0,*72
1498291229.12,4540,18.19,74066.3,13.33,-27.61,-30.33,0,*7B
1498291230.37,4541,18.19,74070.0,13.31,-26.93,-29.23,0,*7D
1498291231.59,4542,18.13,74064.5,13.31,-27.77,-30.27,0,*79
1498291232.82,4543,18.13,74070.0,13.25,-27.39,-29.95,0,*76
1498291234.03,4544,18.19,74072.5,13.25,-27.03,-29.29,0,*7F
1498291235.29,4545,18.13,74076.8,13.21,-27.29,-29.73,0,*7D
1498291236.51,4546,18.19,74078.5,13.21,-26.23,-28.69,0,*7F
1498291237.78,4547,18.13,74078.5,13.17,-26.29,-28.43,0,*79
1498291239.0,4548,18.19,74082.5,13.17,-25.65,-27.89,0,*74
1498291240.24,4549,18.13,74078.3,13.17,-24.87,-27.13,0,*7B
1498291241.46,4550,18.13,74078.3,13.17,-24.35,-26.49,0,*74
1498291242.69,4551,18.13,74080.5,13.19,-24.31,-26.33,0,*72
1498291243.97,4552,18.19,74080.3,13.17,-24.15,-26.13,0,*7B
1498291245.19,4553,18.19,74072.0,13.17,-24.35,-26.49,0,*77
1498291246.41,4554,18.19,74072.0,13.17,-25.35,-27.51,0,*79
1498291247.62,4555,18.19,74066.3,13.17,-26.87,-29.07,0,*7F
1498291248.89,4556,18.13,74068.3,13.17,-27.39,-29.73,0,*7B
1498291250.17,4557,18.19,74062.5,13.13,-25.55,-27.61,0,*7B
1498291251.42,4558,18.19,74052.3,13.13,-25.23,-27.39,0,*78
1498291252.63,4559,18.19,74058.5,13.11,-26.87,-29.13,0,*70
1498291253.87,4560,18.19,74052.8,13.09,-27.13,-29.29,0,*76
1498291255.07,4561,18.19,74054.3,13.07,-28.15,-30.45,0,*72
1498291256.3,4562,18.13,74054.3,13.03,-26.23,-28.25,0,*71
1498291257.5,4563,18.19,74054.8,13.03,-24.77,-26.61,0,*7D
1498291258.76,4564,18.19,74066.0,13.05,-22.57,-24.41,0,*78
1498291260.01,4565,18.13,74070.3,13.07,-22.77,-24.67,0,*7D
1498291261.27,4566,18.19,74074.0,13.09,-23.65,-25.65,0,*71
1498291262.48,4567,18.19,74074.8,13.11,-23.59,-25.61,0,*72
1498291263.72,4568,18.19,74068.8,13.13,-22.03,-23.95,0,*7C
1498291264.94,4569,18.13,74064.0,13.13,-21.09,-22.83,0,*72
1498291266.16,4570,18.19,74074.0,13.19,-20.49,-22.11,0,*7E
1498291267.38,4571,18.19,74078.8,13.23,-20.93,-22.73,0,*75
1498291268.62,4572,18.19,74078.0,13.27,-23.29,-25.23,0,*72
1498291269.88,4573,18.19,74088.0,13.25,-22.77,-24.71,0,*7D
1498291271.12,4574,18.19,74092.5,13.27,-21.47,-23.29,0,*72
1498291272.35,4575,18.19,74088.8,13.31,-23.13,-25.13,0,*78
1498291273.63,4576,18.13,74088.3,13.31,-24.71,-26.93,0,*73
1498291274.86,4577,18.19,74084.3,13.29,-24.05,-26.13,0,*70
1498291276.09,4578,18.13,74080.5,13.29,-23.03,-24.93,0,*74
1498291277.34,4579,18.19,74084.0,13.31,-20.99,-22.67,0,*71
1498291278.53,4580,18.13,74084.5,13.33,-20.05,-21.73,0,*76
1498291279.75,4581,18.19,74086.8,13.37,-21.77,-23.53,0,*77
1498291280.97,4582,18.13,74084.5,13.41,-21.97,-23.89,0,*7C
1498291282.23,4583,18.19,74078.5,13.43,-22.17,-24.11,0,*72
1498291283.46,4584,18.13,74076.5,13.45,-20.93,-23.03,0,*79
1498291284.65,4585,18.19,74082.8,13.45,-20.05,-21.77,0,*76
1498291285.86,4586,18.13,74080.0,13.49,-20.53,-22.41,0,*7C
1498291287.09,4587,18.13,74078.8,13.51,-21.17,-23.09,0,*78
1498291288.31,4588,18.19,74090.5,13.53,-19.91,-21.57,0,*79
1498291289.58,4589,18.19,74090.8,13.57,-19.85,-21.67,0,*7A
1498291290.81,4590,18.19,74088.3,13.63,-21.23,-23.13,0,*73
1498291292.01,4591,18.19,74094.5,13.63,-21.09,-22.97,0,*77
1498291293.29,4592,18.19,74094.8,13.65,-20.53,-22.31,0,*70
1498291294.54,4593,18.19,74094.5,13.65,-21.73,-23.69,0,*7E
1498291295.76,4594,18.13,74090.3,13.71,-22.11,-23.99,0,*74
1498291297.01,4595,18.13,74088.5,13.69,-22.87,-24.87,0,*7B
1498291298.28,4596,18.19,74098.0,13.69,-23.19,-25.03,0,*73
1498291299.52,4597,18.19,74094.3,13.69,-23.75,-25.87,0,*74
1498291300.77,4598,18.19,74086.8,13.69,-26.03,-28.47,0,*7E
1498291301.98,4599,18.13,74082.0,13.67,-24.77,-26.87,0,*72
1498291303.18,4600,18.13,74086.8,13.63,-22.41,-24.47,0,*78
1498291304.41,4601,18.13,74082.0,13.65,-22.53,-24.51,0,*7B
1498291305.64,4602,18.19,74090.8,13.65,-21.93,-23.79,0,*7A
1498291306.84,4603,18.19,74088.5,13.67,-21.09,-22.97,0,*7B
1498291308.07,4604,18.19,74084.8,13.67,-22.17,-24.57,0,*7A
1498291309.3,4605,18.19,74088.3,13.71,-24.05,-26.17,0,*7F
1498291310.55,4606,18.19,74088.8,13.69,-24.35,-26.55,0,*70
1498291311.76,4607,18.19,74088.3,13.67,-23.59,-25.49,0,*7C
1498291312.99,4608,18.13,74086.5,13.67,-24.05,-26.17,0,*75
1498291314.22,4609,18.19,74088.0,13.65,-22.67,-24.61,0,*77
1498291315.49,4610,18.13,74086.5,13.65,-20.79,-22.73,0,*77
1498291316.71,4611,18.19,74088.8,13.71,-19.75,-21.53,0,*74
1498291317.94,4612,18.13,74084.3,13.73,-19.71,-21.43,0,*70
1498291319.17,4613,18.19,74088.3,13.77,-19.95,-21.73,0,*7C
1498291320.4,4614,18.19,74090.8,13.79,-20.39,-22.31,0,*7C
1498291321.66,4615,18.13,74090.3,13.81,-20.59,-22.47,0,*7D
1498291322.92,4616,18.19,74092.5,13.85,-19.99,-21.87,0,*73
1498291324.13,4617,18.19,74094.5,13.87,-21.43,-23.65,0,*72
1498291325.35,4618,18.19,74092.8,13.89,-22.27,-24.11,0,*76
1498291326.55,4619,18.19,74090.3,13.89,-21.93,-24.05,0,*7E
1498291327.8,4620,18.13,74088.3,13.89,-23.69,-25.97,0,*79
1498291329.06,4621,18.19,74086.0,13.89,-22.31,-24.41,0,*7E
1498291330.28,4622,18.19,74086.5,13.87,-21.03,-23.09,0,*7A
1498291331.51,4623,18.13,74092.5,13.93,-20.99,-22.97,0,*7A
1498291332.74,4624,18.19,74092.3,13.93,-21.73,-23.85,0,*7A
1498291333.99,4625,18.19,74092.5,13.93,-21.57,-23.65,0,*73
1498291335.24,4626,18.19,74090.5,13.97,-21.53,-23.49,0,*7E
1498291336.47,4627,18.19,74092.8,13.97,-21.53,-23.59,0,*7E
1498291337.69,4628,18.19,74094.0,13.97,-21.43,-23.33,0,*7C
1498291338.91,4629,18.19,74092.8,13.99,-20.25,-22.27,0,*76
1498291340.17,4630,18.13,74088.8,14.01,-19.65,-21.67,0,*71
1498291341.39,4631,18.19,74090.0,14.01,-20.53,-22.63,0,*78
1498291342.62,4632,18.19,74090.5,14.05,-20.63,-22.77,0,*79
1498291343.88,4633,18.19,74088.8,14.11,-19.85,-21.67,0,*7D
1498291345.12,4634,18.19,74090.3,14.11,-20.15,-22.11,0,*7B
1498291346.39,4635,18.19,74090.8,14.15,-20.19,-22.21,0,*71
1498291347.63,4636,18.19,74088.0,14.15,-20.49,-22.41,0,*71
1498291348.89,4637,18.19,74086.5,14.19,-19.85,-21.83,0,*7B
1498291350.11,4638,18.19,74080.5,14.19,-20.25,-22.11,0,*7C
1498291351.36,4639,18.13,74080.3,14.21,-19.95,-21.83,0,*7F
1498291352.59,4640,18.19,74080.8,14.23,-21.13,-23.19,0,*77
1498291353.84,4641,18.19,74084.3,14.21,-21.83,-23.59,0,*79
1498291355.09,4642,18.19,74084.3,14.23,-21.33,-23.33,0,*7F
1498291356.31,4643,18.19,74086.5,14.23,-22.87,-25.03,0,*77
1498291357.54,4644,18.19,74082.5,14.23,-24.51,-26.81,0,*74
1498291358.75,4645,18.19,74086.3,14.23,-24.35,-26.61,0,*79
1498291360.0,4646,18.19,74082.0,14.21,-23.29,-25.35,0,*70
1498291361.22,4647,18.19,74080.5,14.19,-24.05,-26.23,0,*77
1498291362.46,4648,18.19,74084.5,14.19,-21.83,-23.79,0,*79
1498291363.72,4649,18.19,74084.5,14.19,-21.33,-23.29,0,*76
1498291364.95,4650,18.19,74088.8,14.19,-23.43,-25.65,0,*75
1498291366.22,4651,18.19,74086.5,14.19,-21.97,-24.21,0,*7E
1498291367.44,4652,18.19,74088.3,14.17,-21.63,-23.65,0,*7F
1498291368.69,4653,18.13,74084.3,14.23,-20.83,-22.77,0,*74
1498291369.91,4654,18.19,74090.5,14.23,-20.69,-22.77,0,*77
1498291371.11,4655,18.19,74084.0,14.23,-22.37,-24.35,0,*7F
1498291372.35,4656,18.13,74082.8,14.23,-22.21,-24.15,0,*79
1498291373.56,4657,18.19,74082.0,14.23,-22.07,-24.15,0,*7C
1498291374.84,4658,18.19,74080.8,14.25,-21.27,-23.19,0,*7F
1498291376.07,4659,18.13,74086.5,14.25,-22.37,-24.61,0,*74
1498291377.34,4660,18.19,74088.8,14.25,-25.45,-27.83,0,*73
1498291378.55,4661,18.13,74086.0,14.23,-24.51,-26.65,0,*79
1498291379.83,4662,18.19,74086.0,14.21,-25.75,-28.21,0,*71
1498291381.04,4663,18.13,74082.3,14.19,-25.35,-27.71,0,*75
1498291382.31,4664,18.19,74080.3,14.19,-24.41,-26.71,0,*71
1498291383.54,4665,18.19,74074.8,14.17,-24.31,-26.55,0,*7F
1498291384.77,4666,18.19,74076.3,14.13,-24.61,-26.81,0,*74
1498291385.98,4667,18.19,74074.8,14.13,-23.23,-25.35,0,*78
1498291387.23,4668,18.19,74076.5,14.13,-23.03,-25.03,0,*70
1498291388.46,4669,18.19,74080.5,14.13,-23.65,-25.65,0,*71
1498291389.73,4670,18.19,74082.8,14.15,-21.67,-23.69,0,*75
1498291390.95,4671,18.19,74080.5,14.17,-21.87,-23.79,0,*79
1498291392.17,4672,18.19,74084.8,14.19,-20.39,-22.27,0,*7A
1498291393.42,4673,18.19,74086.0,14.21,-20.79,-22.67,0,*70
1498291394.65,4674,18.19,74086.5,14.25,-20.63,-22.53,0,*7F
1498291395.9,4675,18.13,74082.0,14.27,-20.19,-22.17,0,*71
1498291397.14,4676,18.13,74082.5,14.31,-20.59,-22.47,0,*74
1498291398.36,4677,18.13,74082.0,14.35,-19.47,-21.27,0,*71
1498291399.61,4678,18.19,74084.5,14.37,-19.75,-21.57,0,*7A
1498291400.81,4679,18.19,74082.0,14.39,-20.73,-22.53,0,*7E
1498291402.01,4680,18.19,74078.3,14.39,-20.89,-22.67,0,*7A
1498291403.24,4681,18.19,74078.5,14.41,-20.63,-22.53,0,*77
1498291404.48,4682,18.19,74078.3,14.43,-20.19,-21.97,0,*70
1498291405.72,4683,18.19,74080.5,14.45,-19.31,-21.09,0,*70
1498291406.98,4684,18.19,74082.8,14.49,-19.27,-21.13,0,*77
1498291408.23,4685,18.19,74086.0,14.49,-19.41,-21.39,0,*7E
1498291409.51,4686,18.19,74084.8,14.55,-19.31,-21.27,0,*78
1498291410.77,4687,18.19,74084.0,14.57,-19.27,-20.99,0,*78
1498291412.02,4688,18.19,74084.5,14.63,-19.03,-20.83,0,*7D
1498291413.25,4689,18.19,74086.3,14.63,-19.37,-21.17,0,*77
1498291414.47,4690,18.19,74084.3,14.67,-19.47,-21.43,0,*7D
1498291415.74,4691,18.19,74086.3,14.71,-19.85,-21.83,0,*79
1498291416.94,4692,18.19,74084.0,14.69,-19.91,-21.73,0,*79
1498291418.19,4693,18.19,74084.3,14.71,-19.57,-21.39,0,*75
1498291419.39,4694,18.19,74088.5,14.77,-20.39,-22.27,0,*7A
1498291420.62,4695,18.19,74088.8,14.77,-20.99,-22.87,0,*7B
1498291421.89,4696,18.13,74088.0,14.79,-21.57,-23.49,0,*76
1498291423.13,4697,18.19,74094.8,14.79,-21.39,-23.29,0,*79
1498291424.34,4698,18.19,74092.8,14.81,-19.99,-21.93,0,*73
1498291425.56,4699,18.19,74092.0,14.81,-21.39,-23.19,0,*73
1498291426.78,4700,18.19,74094.8,14.81,-21.43,-23.33,0,*77
1498291428.06,4701,18.19,74096.8,14.83,-22.17,-24.21,0,*72
1498291429.31,4702,18.19,74098.3,14.83,-23.95,-26.23,0,*7A
1498291430.58,4703,18.19,74088.3,14.79,-25.75,-28.09,0,*70
1498291431.86,4704,18.19,74086.0,14.75,-25.81,-27.99,0,*76
1498291433.08,4705,18.19,74080.3,14.69,-24.87,-27.13,0,*7F
1498291434.29,4706,18.13,74076.8,14.69,-26.07,-28.31,0,*79
1498291435.48,4707,18.19,74080.8,14.65,-25.61,-27.93,0,*70
1498291436.73,4708,18.19,74078.3,14.63,-23.89,-25.97,0,*7F
1498291437.99,4709,18.19,74078.5,14.63,-23.29,-25.49,0,*77
1498291439.22,4710,18.19,74076.3,14.61,-23.49,-25.61,0,*71
1498291440.5,4711,18.19,74074.8,14.63,-21.97,-23.85,0,*7F
1498291441.76,4712,18.19,74072.5,14.63,-23.69,-25.81,0,*7D
1498291443.03,4713,18.19,74076.3,14.63,-24.67,-26.71,0,*79
1498291444.26,4714,18.13,74082.3,14.61,-24.61,-26.77,0,*7C
1498291445.45,4715,18.19,74088.0,14.61,-26.87,-29.07,0,*7F
1498291446.67,4716,18.19,74086.8,14.57,-27.77,-30.05,0,*7D
1498291447.93,4717,18.13,74084.5,14.53,-24.15,-26.17,0,*7B
1498291449.16,4718,18.19,74084.5,14.53,-23.03,-24.97,0,*7E
1498291450.38,4719,18.19,74086.5,14.53,-23.03,-24.97,0,*7F
1498291451.62,4720,18.19,74086.0,14.55,-22.07,-23.99,0,*7F
1498291452.9,4721,18.19,74084.0,14.55,-23.99,-26.17,0,*7B
1498291454.1,4722,18.19,74080.3,14.53,-23.13,-25.13,0,*7B
1498291455.33,4723,18.19,74082.3,14.53,-21.83,-23.75,0,*77
1498291456.58,4724,18.19,74082.3,14.55,-21.39,-23.23,0,*74
1498291457.81,4725,18.19,74082.5,14.59,-20.73,-22.67,0,*77
1498291459.06,4726,18.19,74086.8,14.59,-22.47,-24.57,0,*74
1498291460.28,4727,18.19,74084.5,14.61,-23.13,-25.29,0,*76
1498291461.49,4728,18.19,74086.5,14.61,-24.05,-26.07,0,*76
1498291462.68,4729,18.19,74084.3,14.61,-22.63,-24.57,0,*76
1498291463.91,4730,18.19,74090.5,14.59,-21.13,-23.13,0,*76
1498291465.12,4731,18.19,74090.8,14.61,-20.35,-22.37,0,*7E
1498291466.31,4732,18.19,74094.8,14.65,-19.75,-21.73,0,*74
1498291467.53,4733,18.19,74092.3,14.67,-20.69,-22.53,0,*71
1498291468.79,4734,18.19,74094.3,14.69,-21.23,-23.03,0,*73
1498291470.01,4735,18.19,74094.3,14.71,-19.99,-21.73,0,*74
1498291471.25,4736,18.19,74094.8,14.77,-20.35,-22.21,0,*79
1498291472.47,4737,18.19,74094.5,14.77,-21.97,-23.89,0,*72
1498291473.74,4738,18.19,74096.0,14.79,-20.79,-22.73,0,*76
1498291474.96,4739,18.19,74098.5,14.81,-20.83,-22.53,0,*77
1498291476.21,4740,18.19,74094.8,14.81,-23.85,-26.13,0,*7C
1498291477.43,4741,18.19,74096.8,14.81,-25.29,-27.07,0,*79
1498291478.69,4742,18.19,74100.0,14.79,-24.61,-26.97,0,*78
1498291479.93,4743,18.19,74108.5,14.75,-24.93,-27.35,0,*71
1498291481.2,4744,18.19,74104.0,14.75,-24.87,-27.19,0,*7D
1498291482.43,4745,18.19,74100.3,14.69,-25.71,-27.89,0,*70
1498291483.66,4746,18.19,74100.3,14.69,-25.09,-27.23,0,*7C
1498291484.89,4747,18.19,74094.0,14.65,-25.29,-27.45,0,*73
1498291486.12,4748,18.19,74096.8,14.65,-23.79,-26.13,0,*7D
1498291487.34,4749,18.19,74098.0,14.63,-23.13,-25.35,0,*71
1498291488.57,4750,18.19,74092.3,14.63,-22.93,-25.09,0,*7F
1498291489.79,4751,18.19,74096.0,14.65,-27.35,-30.45,0,*7D
1498291491.02,4752,18.19,74082.3,14.61,-28.75,-31.17,0,*77
1498291492.28,4753,18.19,74078.3,14.53,-26.55,-28.05,0,*70
1498291493.5,4754,18.19,74084.5,14.55,-25.87,-28.15,0,*7C
1498291494.73,4755,18.19,74084.5,14.53,-26.97,-29.23,0,*7D
1498291495.93,4756,18.13,74082.8,14.47,-26.61,-28.69,0,*7D
1498291497.15,4757,18.19,74078.3,14.47,-24.77,-26.77,0,*78
1498291498.37,4758,18.19,74072.8,14.45,-22.97,-24.93,0,*75
1498291499.6,4759,18.19,74070.5,14.45,-22.37,-24.31,0,*76
1498291500.87,4760,18.19,74066.8,14.49,-22.21,-24.25,0,*72
1498291502.09,4761,18.19,74062.3,14.49,-22.67,-24.77,0,*76
1498291503.36,4762,18.19,74066.5,14.49,-24.87,-27.19,0,*76
1498291504.6,4763,18.19,74076.5,14.49,-26.45,-28.75,0,*7E
1498291505.87,4764,18.19,74084.3,14.45,-27.23,-29.89,0,*76
1498291507.12,4765,18.19,74080.0,14.43,-28.21,-30.95,0,*79
1498291508.33,4766,18.19,74086.3,14.39,-29.45,-32.13,0,*78
1498291509.55,4767,18.19,74094.8,14.35,-29.89,-32.35,0,*71
1498291510.81,4768,18.19,74092.3,14.25,-26.65,-29.17,0,*78
1498291512.06,4769,18.19,74086.0,14.25,-24.77,-26.93,0,*7B
1498291513.32,4770,18.19,74082.0,14.27,-27.61,-30.55,0,*78
1498291514.58,4771,18.19,74076.3,14.21,-29.45,-32.07,0,*72
1498291515.83,4772,18.19,74066.8,14.19,-29.61,-32.07,0,*7C
1498291517.03,4773,18.19,74056.3,14.13,-29.07,-31.45,0,*72
1498291518.27,4774,18.19,74046.8,14.09,-30.51,-33.31,0,*74
1498291519.52,4775,18.19,74048.3,14.03,-34.01,-36.97,0,*77
1498291520.8,4776,18.19,74058.5,13.95,-31.95,-34.65,0,*7B
1498291522.05,4777,18.19,74056.3,13.91,-30.83,-33.61,0,*7B
1498291523.33,4778,18.19,74062.3,13.81,-31.85,-34.53,0,*74
1498291524.58,4779,18.19,74064.8,13.81,-29.51,-32.01,0,*74
1498291525.87,4780,18.19,74066.5,13.77,-28.43,-30.77,0,*7A
1498291527.11,4781,18.19,74058.5,13.75,-28.37,-30.77,0,*7A
1498291528.4,4782,18.19,74058.5,13.69,-29.51,-31.95,0,*78
1498291529.65,4783,18.19,74052.5,13.69,-28.75,-31.17,0,*74
1498291530.91,4784,18.19,74052.5,13.65,-31.23,-33.83,0,*7B
1498291532.13,4785,18.19,74066.3,13.63,-30.33,-32.85,0,*7B
1498291533.33,4786,18.19,74064.3,13.59,-29.23,-31.67,0,*77
1498291534.59,4787,18.19,74060.8,13.55,-27.77,-30.17,0,*73
1498291535.82,4788,18.19,74068.0,13.55,-26.87,-29.13,0,*7E
1498291537.05,4789,18.19,74064.3,13.55,-27.89,-30.33,0,*7A
1498291538.29,4790,18.19,74066.8,13.53,-27.61,-30.33,0,*72
1498291539.49,4791,18.19,74072.0,13.53,-25.91,-28.15,0,*73
1498291540.73,4792,18.19,74074.8,13.51,-26.17,-28.69,0,*74
1498291541.93,4793,18.19,74076.3,13.53,-27.29,-29.61,0,*72
1498291543.16,4794,18.19,74090.3,13.53,-26.39,-28.47,0,*70
1498291544.39,4795,18.19,74076.8,13.53,-26.45,-28.63,0,*7C
1498291545.59,4796,18.19,74068.8,13.53,-25.23,-27.29,0,*7D
1498291546.79,4797,18.19,74074.3,13.53,-23.79,-25.91,0,*74
1498291547.98,4798,18.19,74072.0,13.53,-25.61,-27.71,0,*78
1498291549.23,4799,18.19,74076.3,13.55,-25.09,-27.23,0,*76
1498291550.47,4800,18.19,74078.3,13.55,-25.19,-27.35,0,*7F
1498291551.73,4801,18.19,74078.8,13.57,-25.39,-27.39,0,*72
1498291552.98,4802,18.19,74072.3,13.57,-25.09,-27.35,0,*7E
1498291554.24,4803,18.19,74070.0,13.57,-24.25,-26.23,0,*76
1498291555.49,4804,18.19,74062.8,13.59,-24.67,-26.71,0,*7E
1498291556.74,4805,18.19,74066.5,13.59,-25.29,-27.35,0,*75
1498291557.96,4806,18.19,74066.0,13.63,-23.29,-25.13,0,*7F
1498291559.18,4807,18.19,74062.8,13.63,-21.63,-23.53,0,*70
1498291560.38,4808,18.19,74064.3,13.67,-22.11,-23.89,0,*7A
1498291561.6,4809,18.19,74066.3,13.71,-21.63,-23.53,0,*7D
1498291562.85,4810,18.19,74062.8,13.73,-23.85,-25.91,0,*75
1498291564.11,4811,18.19,74064.0,13.75,-21.67,-23.49,0,*7F
1498291565.33,4812,18.19,74064.5,13.81,-22.41,-24.51,0,*7E
1498291566.58,4813,18.19,74070.3,13.81,-24.41,-26.65,0,*7C
1498291567.78,4814,18.19,74068.3,13.79,-24.97,-27.29,0,*7E
1498291569.02,4815,18.19,74068.0,13.79,-23.99,-26.03,0,*7F
1498291570.23,4816,18.19,74070.3,13.79,-23.69,-25.87,0,*7C
1498291571.5,4817,18.19,74072.0,13.81,-24.21,-26.03,0,*7E
1498291572.75,4818,18.19,74072.8,13.81,-23.53,-25.39,0,*79
1498291573.98,4819,18.19,74070.3,13.85,-22.53,-24.51,0,*72
1498291575.18,4820,18.19,74070.0,13.89,-21.77,-23.59,0,*7E
1498291576.39,4821,18.19,74070.8,13.89,-21.17,-23.09,0,*7C
1498291577.59,4822,18.19,74068.0,13.93,-22.37,-24.35,0,*7D
1498291578.81,4823,18.19,74066.3,13.95,-22.03,-23.79,0,*72
1498291580.01,4824,18.19,74066.3,13.97,-20.89,-22.83,0,*73
1498291581.23,4825,18.19,74066.5,13.99,-22.27,-24.35,0,*71
1498291582.47,4826,18.19,74060.3,14.01,-22.17,-23.95,0,*7A
1498291583.67,4827,18.19,74062.8,14.05,-21.93,-23.79,0,*72
1498291584.89,4828,18.19,74070.5,14.05,-20.73,-22.77,0,*7D
1498291586.14,4829,18.19,74070.3,14.11,-20.69,-22.47,0,*71
1498291587.41,4830,18.19,74070.8,14.15,-20.49,-22.21,0,*7F
1498291588.6,4831,18.19,74074.3,14.17,-20.69,-22.37,0,*79
1498291589.82,4832,18.19,74070.5,14.19,-20.63,-22.41,0,*7F
1498291591.04,4833,18.19,74072.3,14.23,-20.09,-21.83,0,*76
1498291592.31,4834,18.19,74078.0,14.25,-21.23,-23.03,0,*74
1498291593.54,4835,18.19,74070.8,14.27,-21.87,-23.79,0,*74
1498291594.79,4836,18.19,74066.3,14.33,-21.67,-23.89,0,*73
1498291596.05,4837,18.19,74076.3,14.31,-22.77,-24.71,0,*72
1498291597.3,4838,18.19,74082.8,14.31,-21.53,-23.29,0,*72
1498291598.55,4839,18.19,74084.0,14.33,-20.09,-21.83,0,*7D
1498291599.82,4840,18.19,74084.8,14.37,-22.21,-24.15,0,*75
1498291601.04,4841,18.19,74086.0,14.39,-21.97,-23.75,0,*75
1498291602.27,4842,18.19,74084.0,14.39,-21.39,-23.23,0,*71
1498291603.46,4843,18.19,74080.0,14.43,-22.27,-23.89,0,*71
1498291604.74,4844,18.19,74076.3,14.45,-21.27,-23.03,0,*71
1498291605.96,4845,18.19,74074.5,14.43,-21.67,-23.59,0,*7D
1498291607.17,4846,18.19,74072.5,14.47,-20.93,-22.73,0,*79
1498291608.42,4847,18.19,74074.0,14.49,-19.57,-21.09,0,*7A
1498291609.68,4848,18.19,74076.0,14.53,-19.65,-21.03,0,*75
1498291610.94,4849,18.19,74076.5,14.57,-19.61,-21.27,0,*72
1498291612.18,4850,18.19,74074.0,14.59,-19.85,-21.43,0,*7C
1498291613.41,4851,18.19,74068.3,14.65,-19.71,-21.33,0,*7E
1498291614.69,4852,18.19,74066.0,14.67,-19.27,-20.83,0,*76
1498291615.89,4853,18.19,74068.5,14.69,-19.71,-21.43,0,*77
1498291617.18,4854,18.19,74072.0,14.75,-19.61,-21.23,0,*7A
1498291618.38,4855,18.19,74078.0,14.77,-20.69,-22.53,0,*7F
1498291619.6,4856,18.19,74076.3,14.77,-21.73,-23.53,0,*77
1498291620.87,4857,18.19,74072.3,14.75,-21.53,-23.29,0,*7B
1498291622.12,4858,18.19,74064.8,14.79,-20.79,-22.53,0,*7D
1498291623.35,4859,18.19,74064.3,14.81,-21.13,-23.03,0,*72
1498291624.57,4860,18.19,74060.5,14.81,-21.27,-22.97,0,*73
1498291625.8,4861,18.19,74060.3,14.81,-21.23,-22.87,0,*77
1498291627.07,4862,18.19,74068.5,14.83,-21.03,-22.77,0,*7B
1498291628.27,4863,18.19,74074.3,14.85,-22.11,-23.89,0,*7C
1498291629.49,4864,18.19,74070.5,14.85,-21.47,-23.23,0,*7B
1498291630.69,4865,18.19,74070.8,14.85,-20.89,-22.67,0,*78
1498291631.92,4866,18.19,74074.3,14.89,-21.57,-23.43,0,*72
1498291633.15,4867,18.19,74078.8,14.89,-20.99,-22.83,0,*7D
1498291634.4,4868,18.19,74072.8,14.89,-21.53,-23.19,0,*77
1498291635.64,4869,18.19,74076.5,14.93,-20.43,-22.17,0,*72
1498291636.89,4870,18.19,74078.5,14.91,-20.79,-22.63,0,*72
1498291638.09,4871,18.19,74074.3,14.93,-21.09,-22.93,0,*78
1498291639.36,4872,18.19,74080.8,14.99,-21.23,-23.03,0,*71
1498291640.61,4873,18.19,74080.8,14.95,-20.35,-22.07,0,*7F
1498291641.83,4874,18.19,74078.8,15.01,-20.19,-22.03,0,*7E
1498291643.1,4875,18.19,74080.0,15.03,-19.85,-21.57,0,*70
1498291644.38,4876,18.19,74084.5,15.03,-19.65,-21.33,0,*7F
1498291645.61,4877,18.19,74090.5,15.07,-20.43,-22.27,0,*72
1498291646.83,4878,18.19,74088.3,15.09,-20.99,-22.83,0,*7A
1498291648.06,4879,18.19,74084.8,15.11,-20.93,-22.93,0,*79
1498291649.28,4880,18.19,74082.0,15.11,-22.53,-24.31,0,*7F
1498291650.54,4881,18.19,74084.5,15.11,-20.89,-22.47,0,*7C
1498291651.82,4882,18.19,74084.8,15.11,-20.49,-22.17,0,*76
1498291653.02,4883,18.19,74088.5,15.13,-20.89,-22.67,0,*7E
1498291654.27,4884,18.19,74090.3,15.17,-19.95,-21.67,0,*79
1498291655.5,4885,18.19,74084.0,15.21,-20.93,-22.97,0,*7D
1498291656.78,4886,18.19,74086.5,15.17,-22.17,-23.85,0,*77
1498291658.03,4887,18.19,74086.0,15.17,-21.97,-23.89,0,*71
1498291659.3,4888,18.19,74090.5,15.21,-22.21,-23.99,0,*74
1498291660.55,4889,18.19,74086.0,15.21,-21.73,-23.65,0,*72
1498291661.78,4890,18.19,74084.8,15.21,-22.83,-24.77,0,*72
1498291663.0,4891,18.19,74084.8,15.21,-22.57,-24.35,0,*7C
1498291664.26,4892,18.19,74076.0,15.21,-24.83,-27.07,0,*72
1498291665.48,4893,18.19,74070.8,15.15,-26.87,-28.85,0,*77
1498291666.71,4894,18.19,74076.8,15.13,-25.39,-27.35,0,*74
1498291667.93,4895,18.19,74082.5,15.09,-29.13,-31.45,0,*7A
1498291669.13,4896,18.19,74080.0,15.01,-31.29,-33.67,0,*73
1498291670.35,4897,18.19,74074.5,14.95,-27.13,-29.23,0,*7B
1498291671.6,4898,18.19,74066.3,14.95,-24.67,-27.13,0,*79
1498291672.8,4899,18.19,74072.8,14.93,-23.59,-25.35,0,*72
1498291674.06,4900,18.19,74066.8,14.91,-24.11,-26.03,0,*7C
1498291675.3,4901,18.19,74084.3,14.95,-22.41,-24.15,0,*7F
1498291676.58,4902,18.19,74090.8,14.95,-21.33,-23.19,0,*71
1498291677.83,4903,18.19,74086.5,14.95,-27.71,-30.05,0,*7F
1498291679.05,4904,18.19,74086.8,14.91,-31.01,-33.55,0,*7A
1498291680.3,4905,18.19,74072.3,14.83,-30.67,-33.09,0,*70
1498291681.57,4906,18.19,74060.8,14.79,-30.01,-32.45,0,*7F
1498291682.82,4907,18.19,74068.3,14.69,-31.39,-33.73,0,*71
1498291684.07,4908,18.19,74072.5,14.65,-27.61,-29.17,0,*71
1498291685.32,4909,18.19,74076.8,14.65,-24.83,-26.77,0,*76
1498291686.58,4910,18.19,74076.3,14.63,-24.35,-26.33,0,*75
1498291687.77,4911,18.19,74076.5,14.65,-24.61,-26.49,0,*7E
1498291688.97,4912,18.19,74080.8,14.65,-24.05,-26.07,0,*75
1498291690.17,4913,18.19,74078.8,14.65,-24.61,-26.65,0,*72
1498291691.39,4914,18.19,74076.8,14.65,-23.85,-25.91,0,*70
1498291692.61,4915,18.19,74080.5,14.65,-23.69,-25.65,0,*78
1498291693.84,4916,18.19,74078.3,14.65,-22.57,-24.21,0,*76
1498291695.09,4917,18.19,74076.5,14.67,-22.41,-24.21,0,*72
1498291696.28,4918,18.19,74076.8,14.65,-22.83,-24.47,0,*71
1498291697.49,4919,18.19,74082.0,14.69,-23.43,-25.39,0,*79
1498291698.74,4920,18.19,74082.3,14.71,-22.37,-23.99,0,*74
1498291699.96,4921,18.19,74082.8,14.71,-22.83,-24.61,0,*7A
1498291701.19,4922,18.19,74076.8,14.75,-23.43,-25.19,0,*7E
1498291702.44,4923,18.13,74070.8,14.77,-23.69,-25.75,0,*7F